Stations météo

réclame
Mon MeteoGroup
Antwerpen, Belgique (6450): Température de l'air & dewpoint: 19.02.2018 22:00:00 - 25.02.2018 22:00:00 (CET)Antwerpen, Belgique (6450): Vitesse du vent & gusts: 19.02.2018 22:00:00 - 25.02.2018 22:00:00 (CET)Antwerpen, Belgique (6450): Direction du vent: 19.02.2018 22:00:00 - 25.02.2018 22:00:00 (CET)Antwerpen, Belgique (6450): reduced air pressure: 19.02.2018 22:00:00 - 25.02.2018 22:00:00 (CET)Antwerpen, Belgique (6450): visibility: 19.02.2018 22:00:00 - 25.02.2018 22:00:00 (CET)
Date & Time tt [°C] td [°C] ff [km/h] ff [knt] fx [km/h] fx [knt] dd ppp [hPa] vv [km]
25.02.2018 22:00:00 -2,2 -11,6 24 13 - - ENE 1029,3 10
25.02.2018 21:00:00 -2,1 -11,7 21 11 43 23 NE 1029,0 10
25.02.2018 20:00:00 -1,3 -12,6 18 10 29 16 ENE 1028,8 10
25.02.2018 19:00:00 -0,9 -12,9 18 10 - - ENE 1028,7 10
25.02.2018 18:00:00 0,0 -14,6 18 10 36 19 NE 1028,4 10
25.02.2018 17:00:00 0,9 -13,4 24 13 36 19 NE 1028,0 10
25.02.2018 16:00:00 1,6 -15,7 18 10 - - ENE 1028,1 10
25.02.2018 15:00:00 1,5 -14,4 22 12 32 18 ENE 1028,4 10
25.02.2018 14:00:00 1,2 -14,8 21 11 36 19 ENE 1028,7 10
25.02.2018 13:00:00 0,6 -15,2 26 14 - - ENE 1029,2 10
25.02.2018 12:00:00 0,1 -13,6 24 13 36 19 E 1029,4 10
25.02.2018 11:00:00 -1,2 -13,4 24 13 36 19 E 1029,5 10
25.02.2018 10:00:00 -2,3 -12,5 22 12 - - E 1029,5 10
25.02.2018 09:00:00 -3,3 -11,8 18 10 32 18 E 1029,2 10
25.02.2018 08:00:00 -3,9 -11,3 21 11 36 19 E 1028,6 10
25.02.2018 07:00:00 -3,8 -10,9 21 11 - - ENE 1028,1 10
25.02.2018 06:00:00 -3,3 -11,0 21 11 36 19 ENE 1027,9 10
25.02.2018 05:00:00 -2,8 -10,9 21 11 32 18 ENE 1027,2 10
25.02.2018 04:00:00 -2,5 -11,1 21 11 - - E 1026,6 10
25.02.2018 03:00:00 -2,1 -10,5 22 12 36 19 E 1026,6 10
25.02.2018 02:00:00 -1,6 -10,2 22 12 36 19 ENE 1026,6 10
25.02.2018 01:00:00 -1,4 -9,7 21 11 - - E 1026,5 10
25.02.2018 00:00:00 -0,8 -9,3 22 12 40 21 ENE 1026,4 10
24.02.2018 23:00:00 -0,5 -8,5 24 13 40 21 ENE 1026,1 10
24.02.2018 22:00:00 -0,1 -8,8 26 14 - - E 1025,7 10
24.02.2018 21:00:00 0,4 -8,1 26 14 43 23 E 1025,4 10
24.02.2018 20:00:00 0,8 -7,1 28 15 50 27 ENE 1024,9 10
24.02.2018 19:00:00 1,5 -6,8 28 15 - - ENE 1024,3 10
24.02.2018 18:00:00 2,0 -6,8 18 10 43 23 ENE 1023,8 10
24.02.2018 17:00:00 3,9 -7,2 28 15 43 23 ENE 1023,2 10
24.02.2018 16:00:00 4,6 -9,1 31 17 - - ENE 1023,0 10
24.02.2018 15:00:00 5,1 -9,8 26 14 47 25 E 1022,8 10
24.02.2018 14:00:00 5,1 -10,3 28 15 47 25 E 1022,9 10
24.02.2018 13:00:00 3,7 -11,1 31 17 - - E 1023,2 10
24.02.2018 12:00:00 2,9 -12,6 26 14 47 25 E 1023,4 10
24.02.2018 11:00:00 1,5 -12,2 26 14 47 25 E 1023,5 10
24.02.2018 10:00:00 -0,6 -12,4 28 15 - - E 1023,3 10
24.02.2018 09:00:00 -2,4 -11,0 18 10 29 16 E 1023,2 10
24.02.2018 08:00:00 -3,6 -10,7 15 8 29 16 ENE 1022,8 10
24.02.2018 07:00:00 -3,3 -10,9 16 9 - - E 1022,3 10
24.02.2018 06:00:00 -2,9 -10,7 18 10 32 18 E 1021,9 10
24.02.2018 05:00:00 -2,9 -10,7 21 11 29 16 ENE 1021,7 10
24.02.2018 04:00:00 -2,6 -9,4 18 10 - - E 1021,6 10
24.02.2018 03:00:00 -2,2 -9,0 16 9 32 18 E 1021,6 10
24.02.2018 02:00:00 -2,2 -8,7 16 9 29 16 ENE 1021,4 10
24.02.2018 01:00:00 -1,5 -8,1 18 10 - - ENE 1021,3 10
24.02.2018 00:00:00 -1,2 -7,3 21 11 29 16 ENE 1020,9 10
23.02.2018 23:00:00 -1,2 -7,1 16 9 25 14 ENE 1020,8 10
23.02.2018 22:00:00 -0,6 -7,3 15 8 - - ENE 1020,9 10
23.02.2018 21:00:00 -0,1 -7,7 15 8 29 16 ENE 1020,8 10
23.02.2018 20:00:00 0,9 -8,0 14 8 29 16 ENE 1020,6 30
23.02.2018 19:00:00 1,3 -8,1 18 10 - - E 1020,5 10
23.02.2018 18:00:00 2,1 -8,1 22 12 40 21 E 1020,4 10
23.02.2018 17:00:00 3,3 -7,9 21 11 36 19 E 1020,2 10
23.02.2018 16:00:00 3,6 -8,5 22 12 - - E 1020,2 10
23.02.2018 15:00:00 3,5 -8,7 24 13 40 21 E 1020,6 10
23.02.2018 14:00:00 3,1 -8,9 26 14 40 21 E 1021,1 10
23.02.2018 13:00:00 2,5 -8,0 24 13 - - E 1021,6 10
23.02.2018 12:00:00 1,6 -7,2 26 14 43 23 ENE 1022,1 10
23.02.2018 11:00:00 0,7 -5,3 24 13 40 21 E 1022,3 10
23.02.2018 10:00:00 -0,2 -3,6 22 12 - - ENE 1022,8 9
23.02.2018 09:00:00 -1,3 -4,3 16 9 29 16 ENE 1022,7 9
23.02.2018 08:00:00 -2,1 -4,7 16 9 29 16 ENE 1022,6 10
23.02.2018 07:00:00 -2,0 -4,6 15 8 - - ENE 1022,3 10
23.02.2018 06:00:00 -2,1 -4,8 13 7 22 12 ENE 1022,4 9
23.02.2018 05:00:00 -1,9 -4,8 13 7 22 12 NE 1022,4 9
23.02.2018 04:00:00 -1,7 -4,5 15 8 - - NE 1022,5 10
23.02.2018 03:00:00 -1,5 -4,9 15 8 22 12 NE 1022,8 10
23.02.2018 02:00:00 -1,4 -5,1 15 8 22 12 ENE 1022,9 10
23.02.2018 01:00:00 -0,9 -5,7 13 7 - - ENE 1023,2 10
23.02.2018 00:00:00 -0,4 -5,4 15 8 25 14 ENE 1023,1 10
22.02.2018 23:00:00 -0,1 -5,4 16 9 29 16 ENE 1023,1 10
22.02.2018 22:00:00 0,6 -5,1 16 9 - - ENE 1022,9 10
22.02.2018 21:00:00 1,1 -5,3 18 10 32 18 ENE 1022,8 10
22.02.2018 20:00:00 1,8 -5,5 18 10 29 16 ENE 1022,7 10
22.02.2018 19:00:00 2,3 -5,4 21 11 - - NE 1022,4 10
22.02.2018 18:00:00 3,6 -5,5 22 12 40 21 NE 1022,2 10
22.02.2018 17:00:00 4,4 -6,0 26 14 40 21 ENE 1022,0 10
22.02.2018 16:00:00 5,0 -5,9 22 12 - - NE 1022,1 10
22.02.2018 15:00:00 4,9 -6,0 26 14 43 23 NE 1022,7 10
22.02.2018 14:00:00 4,7 -6,3 22 12 36 19 ENE 1023,5 10
22.02.2018 13:00:00 4,3 -6,3 26 14 - - E 1024,0 10
22.02.2018 12:00:00 3,1 -5,4 21 11 32 18 E 1024,4 10
22.02.2018 11:00:00 1,8 -4,5 18 10 29 16 E 1024,4 10
22.02.2018 10:00:00 0,1 -4,7 18 10 - - ENE 1024,6 10
22.02.2018 09:00:00 -1,4 -5,1 15 8 22 12 NE 1024,6 10
22.02.2018 08:00:00 -2,5 -5,4 13 7 18 10 ENE 1024,3 10
22.02.2018 07:00:00 -2,5 -5,4 13 7 - - NE 1024,0 9
22.02.2018 06:00:00 -2,6 -5,3 11 6 18 10 NE 1023,8 8
22.02.2018 05:00:00 -2,4 -5,2 11 6 14 8 NE 1023,7 8
22.02.2018 04:00:00 -2,1 -5,2 11 6 - - NE 1023,8 8
22.02.2018 03:00:00 -1,9 -4,7 11 6 18 10 NE 1024,1 8
22.02.2018 02:00:00 -1,5 -4,7 11 6 14 8 NE 1024,4 8
22.02.2018 01:00:00 -1,3 -4,4 11 6 - - NE 1024,7 8
22.02.2018 00:00:00 -0,4 -3,9 15 8 22 12 NE 1024,9 8
21.02.2018 23:00:00 -0,4 -3,7 9 5 18 10 NE 1025,2 7
21.02.2018 22:00:00 0,0 -3,1 11 6 - - NNE 1025,1 7
21.02.2018 21:00:00 1,0 -2,9 13 7 18 10 NNE 1025,0 7
21.02.2018 20:00:00 1,7 -2,8 9 5 14 8 NNE 1024,8 7
21.02.2018 19:00:00 2,6 -3,2 9 5 - - NNE 1024,9 7
21.02.2018 18:00:00 3,5 -3,1 13 7 25 14 NE 1024,5 9
21.02.2018 17:00:00 4,4 -3,5 18 10 25 14 NNE 1024,3 10
21.02.2018 16:00:00 4,7 -3,6 15 8 - - NNE 1024,6 10
21.02.2018 15:00:00 4,7 -3,1 16 9 29 16 NE 1025,2 9
21.02.2018 14:00:00 4,4 -3,5 16 9 29 16 NNE 1026,0 9
21.02.2018 13:00:00 3,7 -3,7 15 8 - - NE 1026,3 9
21.02.2018 12:00:00 3,1 -3,5 13 7 22 12 ENE 1026,7 7
21.02.2018 11:00:00 1,8 -2,8 11 6 14 8 NE 1026,5 7
21.02.2018 10:00:00 -0,3 -3,5 9 5 - - NE 1026,5 5
21.02.2018 09:00:00 -1,5 -3,5 11 6 18 10 NNE 1026,0 4,5
21.02.2018 08:00:00 -2,1 -3,9 11 6 18 10 NNE 1025,9 4,2
21.02.2018 07:00:00 -1,7 -3,7 9 5 - - NNE 1025,7 6
21.02.2018 06:00:00 -1,5 -3,7 9 5 18 10 NNE 1025,4 5
21.02.2018 05:00:00 -0,9 -3,5 13 7 18 10 NNE 1024,9 5
21.02.2018 04:00:00 -1,1 -3,4 9 5 - - N 1024,9 5
21.02.2018 03:00:00 -0,4 -2,9 9 5 14 8 NE 1024,4 5
21.02.2018 02:00:00 -0,2 -2,5 9 5 14 8 NNE 1024,4 5
21.02.2018 01:00:00 0,0 -2,5 9 5 - - NNE 1024,3 6
21.02.2018 00:00:00 0,7 -2,2 11 6 14 8 NNE 1023,7 6
20.02.2018 23:00:00 1,4 -1,8 9 5 18 10 NNE 1022,9 7
20.02.2018 22:00:00 2,2 -1,7 11 6 - - NNE 1022,3 7
20.02.2018 21:00:00 2,8 -1,2 11 6 22 12 NE 1021,7 8
20.02.2018 20:00:00 3,4 -1,1 9 5 14 8 NE 1021,1 9
20.02.2018 19:00:00 3,5 -1,8 9 5 - - NNE 1020,4 10
20.02.2018 18:00:00 4,1 -1,6 9 5 18 10 NE 1019,8 10
20.02.2018 17:00:00 4,4 -1,8 13 7 18 10 NNE 1019,2 8
20.02.2018 16:00:00 4,9 -1,5 11 6 - - NE 1018,9 9
20.02.2018 15:00:00 5,3 -2,7 8 4 14 8 NNE 1018,9 9
20.02.2018 14:00:00 5,3 -1,5 5 3 11 6 E 1019,0 7
20.02.2018 13:00:00 5,0 -1,3 5 3 - - ENE 1019,2 7
20.02.2018 12:00:00 3,8 -0,4 5 3 11 6 E 1019,2 7
20.02.2018 11:00:00 2,9 -0,9 5 3 11 6 NE 1019,5 7
20.02.2018 10:00:00 2,1 -0,6 8 4 - - E 1019,0 6
20.02.2018 09:00:00 0,9 -1,1 5 3 11 6 ENE 1018,8 6
20.02.2018 08:00:00 0,7 -1,5 2 1 11 6 - 1018,7 5
20.02.2018 07:00:00 0,2 -1,7 8 4 - - E 1018,1 5
20.02.2018 06:00:00 0,2 -0,7 4 2 7 4 - 1018,4 5
20.02.2018 05:00:00 1,0 -0,6 4 2 11 6 - 1018,0 5
20.02.2018 04:00:00 1,7 0,5 5 3 - - ENE 1018,0 6
20.02.2018 03:00:00 2,5 0,5 2 1 4 2 - 1017,9 5
20.02.2018 02:00:00 2,4 1,2 2 1 7 4 - 1017,9 5
20.02.2018 01:00:00 2,4 1,1 8 4 - - E 1017,9 5
20.02.2018 00:00:00 2,0 1,1 2 1 7 4 - 1017,7 5
19.02.2018 23:00:00 2,3 1,4 5 3 11 6 ESE 1017,5 4,0
19.02.2018 22:00:00 2,8 1,9 5 3 - - E 1017,7 3,5

tt = Température de l'air
td = dewpoint
ff = Vitesse du vent
fx = gusts
dd = Direction du vent
ppp = reduced air pressure
vv = visibility

stations d'obs. à proximité